Weather History for Mammoth, CA

Change the Weather History Date:

Wednesday, July 31, 2013

  Actual Average Record
Temperature  
Mean Temperature 64 °F -  
Max Temperature 84 °F 76 °F 89 °F (2000)
Min Temperature 44 °F 62 °F 39 °F (2012)
Degree Days  
Heating Degree Days 1    
Growing Degree Days 14 (Base 50)    
Moisture  
Dew Point 32 °F    
Average Humidity 39    
Maximum Humidity 76    
Minimum Humidity 7    
Precipitation  
Precipitation 0.00 in - - ()
Sea Level Pressure  
Sea Level Pressure 30.31 in    
Wind  
Wind Speed 5 mph (SW)    
Max Wind Speed 28 mph    
Max Gust Speed 38 mph    
Visibility 8 miles    
Events      
Averages and records for this station are not official NWS values.
T = Trace of Precipitation, MM = Missing Value Source: NWS Daily Summary

Daily Weather History Graph

Daily Weather History Graph

Search for Another Location

Airport:

Trip Planner

Search our weather history database for the weather conditions in past years. The results will help you decide how hot, cold, wet, or windy it might be!

Date:

Astronomy

Jul. 31, 2013 Rise Set
Actual Time 5:58 AM PDT 8:04 PM PDT
Civil Twilight 5:29 AM PDT 8:33 PM PDT
Nautical Twilight 4:54 AM PDT 9:08 PM PDT
Astronomical Twilight 4:15 AM PDT 9:46 PM PDT
Moon 12:57 AM PDT (7/31) 3:24 PM PDT (7/31)
Length of Visible Light 15h 03m
Length of Day
14h 05m
Waning Crescent, 31% of the Moon is Illuminated
Jul 31
Waning Crescent
Aug 6
New
Aug 14
First Quarter
Aug 20
Full
Aug 28
Last Quarter

Hourly Weather History & Observations

Time (PDT) Temp. Windchill Dew Point Humidity Pressure Visibility Wind Dir Wind Speed Gust Speed Precip Events Conditions
12:15 AM 55.4 °F - 42.8 °F 63% 30.37 in 7.0 mi Calm Calm - N/A   Overcast
12:35 AM 53.6 °F - 41.0 °F 62% 30.37 in 7.0 mi WNW 3.5 mph - N/A   Overcast
12:55 AM 51.8 °F - 41.0 °F 67% 30.37 in 7.0 mi Calm Calm - N/A   Overcast
1:15 AM 55.4 °F - 42.8 °F 63% 30.37 in 7.0 mi Calm Calm - N/A   Overcast
1:35 AM 55.4 °F - 42.8 °F 63% 30.36 in 7.0 mi Calm Calm - N/A   Overcast
1:55 AM 51.8 °F - 41.0 °F 67% 30.36 in 7.0 mi Calm Calm - N/A   Overcast
2:15 AM 51.8 °F - 42.8 °F 71% 30.36 in 7.0 mi Calm Calm - N/A   Overcast
2:35 AM 48.2 °F - 39.2 °F 71% 30.36 in 7.0 mi Calm Calm - N/A   Overcast
2:55 AM 51.8 °F - 42.8 °F 71% 30.35 in 7.0 mi Calm Calm - N/A   Overcast
3:15 AM 46.4 °F - 39.2 °F 76% 30.35 in 7.0 mi Calm Calm - N/A   Overcast
3:35 AM 46.4 °F - 39.2 °F 76% 30.35 in 7.0 mi Calm Calm - N/A   Overcast
3:55 AM 46.4 °F - 39.2 °F 76% 30.35 in 7.0 mi Calm Calm - N/A   Overcast
4:15 AM 46.4 °F - 39.2 °F 76% 30.35 in 7.0 mi Calm Calm - N/A   Mostly Cloudy
4:35 AM 50.0 °F - 41.0 °F 71% 30.35 in 7.0 mi Calm Calm - N/A   Scattered Clouds
4:55 AM 48.2 °F - 39.2 °F 71% 30.35 in 10.0 mi Calm Calm - N/A   Clear
5:15 AM 48.2 °F - 39.2 °F 71% 30.35 in 10.0 mi Calm Calm - N/A   Clear
5:35 AM 46.4 °F - 37.4 °F 71% 30.35 in 10.0 mi Calm Calm - N/A   Clear
5:55 AM 46.4 °F - 39.2 °F 76% 30.35 in 10.0 mi Calm Calm - N/A   Clear
6:15 AM 44.6 °F - 37.4 °F 76% 30.36 in 10.0 mi Calm Calm - N/A   Clear
6:35 AM 44.6 °F 43.1 °F 37.4 °F 76% 30.36 in 10.0 mi North 3.5 mph - N/A   Clear
6:55 AM 46.4 °F - 39.2 °F 76% 30.36 in 10.0 mi Calm Calm - N/A   Scattered Clouds
7:15 AM 50.0 °F - 41.0 °F 71% 30.36 in 10.0 mi Calm Calm - N/A   Scattered Clouds
7:35 AM 53.6 °F - 41.0 °F 62% 30.36 in 10.0 mi Calm Calm - N/A   Clear
7:55 AM 57.2 °F - 42.8 °F 59% 30.36 in 7.0 mi SSE 3.5 mph - N/A   Clear
8:15 AM 59.0 °F - 42.8 °F 55% 30.36 in 7.0 mi Calm Calm - N/A   Clear
8:35 AM 62.6 °F - 42.8 °F 48% 30.36 in 7.0 mi SSE 3.5 mph - N/A   Clear
8:55 AM 64.4 °F - 41.0 °F 42% 30.36 in 7.0 mi SSE 6.9 mph - N/A   Clear
9:15 AM 66.2 °F - 41.0 °F 40% 30.36 in 7.0 mi SSE 3.5 mph - N/A   Clear
9:35 AM 68.0 °F - 39.2 °F 35% 30.35 in 7.0 mi Calm Calm - N/A   Clear
9:55 AM 73.4 °F - 39.2 °F 29% 30.35 in 10.0 mi ESE 6.9 mph - N/A   Clear
10:15 AM 71.6 °F - 35.6 °F 27% 30.35 in 10.0 mi East 6.9 mph - N/A   Clear
10:35 AM 73.4 °F - 35.6 °F 25% 30.34 in 10.0 mi ESE 9.2 mph - N/A   Clear
10:55 AM 75.2 °F - 28.4 °F 18% 30.34 in 10.0 mi ESE 10.4 mph - N/A   Clear
11:15 AM 75.2 °F - 24.8 °F 15% 30.33 in 10.0 mi ESE 9.2 mph - N/A   Clear
11:35 AM 77.0 °F - 24.8 °F 14% 30.33 in 10.0 mi ESE 11.5 mph - N/A   Clear
11:55 AM 78.8 °F - 24.8 °F 14% 30.32 in 10.0 mi ESE 10.4 mph 19.6 mph N/A   Clear
12:15 PM 78.8 °F - 26.6 °F 15% 30.32 in 10.0 mi ESE 15.0 mph 20.7 mph N/A   Clear
12:35 PM 78.8 °F - 26.6 °F 15% 30.31 in 10.0 mi ESE 9.2 mph - N/A   Clear
12:55 PM 80.6 °F - 24.8 °F 13% 30.30 in 10.0 mi ESE 6.9 mph 17.3 mph N/A   Clear
1:15 PM 82.4 °F - 24.8 °F 12% 30.30 in 10.0 mi East 6.9 mph 16.1 mph N/A   Clear
1:35 PM 82.4 °F - 19.4 °F 10% 30.29 in 10.0 mi SE 6.9 mph - N/A   Clear
1:55 PM 82.4 °F - 19.4 °F 10% 30.28 in 10.0 mi SSW 9.2 mph - N/A   Clear
2:15 PM 82.4 °F - 14.0 °F 8% 30.27 in 10.0 mi SW 5.8 mph - N/A   Clear
2:35 PM 84.2 °F - 14.0 °F 7% 30.28 in 10.0 mi SSW 3.5 mph 23.0 mph N/A   Clear
2:55 PM 82.4 °F - 14.0 °F 8% 30.27 in 10.0 mi SSE 4.6 mph 19.6 mph N/A   Clear
3:15 PM 84.2 °F - 14.0 °F 7% 30.27 in 10.0 mi SW 17.3 mph 28.8 mph N/A   Clear
3:35 PM 82.4 °F - 21.2 °F 10% 30.26 in 7.0 mi West 16.1 mph 24.2 mph N/A   Clear
3:55 PM 82.4 °F - 21.2 °F 10% 30.26 in 10.0 mi WNW 24.2 mph 29.9 mph N/A   Clear
4:15 PM 80.6 °F - 26.6 °F 14% 30.26 in 7.0 mi WNW 26.5 mph 34.5 mph N/A   Scattered Clouds
4:35 PM 78.8 °F - 26.6 °F 15% 30.25 in 7.0 mi WNW 27.6 mph 33.4 mph N/A   Scattered Clouds
4:55 PM 78.8 °F - 24.8 °F 14% 30.25 in 7.0 mi WNW 27.6 mph 32.2 mph N/A   Scattered Clouds
5:15 PM 78.8 °F - 26.6 °F 15% 30.24 in 7.0 mi WNW 24.2 mph 32.2 mph N/A   Scattered Clouds
5:35 PM 77.0 °F - 23.0 °F 13% 30.24 in 7.0 mi WSW 17.3 mph 32.2 mph N/A   Scattered Clouds
5:55 PM 77.0 °F - 24.8 °F 14% 30.24 in 7.0 mi WSW 12.7 mph 27.6 mph N/A   Scattered Clouds
6:15 PM 75.2 °F - 26.6 °F 17% 30.24 in 7.0 mi WNW 20.7 mph 29.9 mph N/A   Mostly Cloudy
6:35 PM 71.6 °F - 28.4 °F 20% 30.24 in 7.0 mi WNW 23.0 mph 34.5 mph N/A   Mostly Cloudy
6:55 PM 69.8 °F - 30.2 °F 23% 30.25 in 7.0 mi WNW 26.5 mph 38.0 mph N/A   Scattered Clouds
7:15 PM 68.0 °F - 30.2 °F 24% 30.24 in 5.0 mi West 27.6 mph 36.8 mph N/A   Haze
7:35 PM 68.0 °F - 30.2 °F 24% 30.24 in 5.0 mi West 25.3 mph 36.8 mph N/A   Haze
7:55 PM 66.2 °F - 30.2 °F 26% 30.24 in 7.0 mi West 18.4 mph 29.9 mph N/A   Scattered Clouds
8:15 PM 64.4 °F - 30.2 °F 28% 30.25 in 7.0 mi West 19.6 mph 27.6 mph N/A   Scattered Clouds
8:35 PM 64.4 °F - 30.2 °F 28% 30.25 in 7.0 mi West 19.6 mph 28.8 mph N/A   Scattered Clouds
8:55 PM 62.6 °F - 30.2 °F 30% 30.25 in 7.0 mi West 8.1 mph 32.2 mph N/A   Mostly Cloudy
9:15 PM 62.6 °F - 30.2 °F 30% 30.26 in 10.0 mi West 20.7 mph 29.9 mph N/A   Scattered Clouds
9:35 PM 64.4 °F - 28.4 °F 26% 30.26 in 10.0 mi SW 11.5 mph 21.9 mph N/A   Clear
9:55 PM 62.6 °F - 28.4 °F 27% 30.27 in 10.0 mi NW 4.6 mph - N/A   Clear
10:15 PM 57.2 °F - 30.2 °F 36% 30.27 in 10.0 mi East 5.8 mph - N/A   Clear
10:35 PM 57.2 °F - 30.2 °F 36% 30.27 in 10.0 mi SSE 4.6 mph - N/A   Clear
10:55 PM 55.4 °F - 32.0 °F 41% 30.27 in 10.0 mi Calm Calm - N/A   Clear
11:15 PM 53.6 °F - 30.2 °F 41% 30.27 in 10.0 mi Calm Calm - N/A   Clear
11:35 PM 51.8 °F - 32.0 °F 47% 30.27 in 10.0 mi Calm Calm - N/A   Clear
11:55 PM 51.8 °F - 32.0 °F 47% 30.27 in 10.0 mi Calm Calm - N/A   Clear